Weather History for KMDJ - June, 2014

Change the Weather History Date:

Sunday, June 8, 2014

  Actual Average Record
Temperature  
Mean Temperature 83 °F -  
Max Temperature 86 °F - - ()
Min Temperature 80 °F - - ()
Cooling Degree Days 18    
Growing Degree Days 33 (Base 50)    
Moisture  
Dew Point 75 °F    
Average Humidity 80    
Maximum Humidity 84    
Minimum Humidity 70    
Precipitation  
Precipitation 0.00 in - - ()
Sea Level Pressure  
Sea Level Pressure 30.00 in    
Wind  
Wind Speed 7 mph (SSW)    
Max Wind Speed 17 mph    
Max Gust Speed 14 mph    
Visibility 10 miles    
Events      
T = Trace of Precipitation, MM = Missing Value Source: NWS Daily Summary

Daily Weather History Graph

Daily Weather History Graph

Search for Another Location

Airport or City:

Trip Planner

Search our weather history database for the weather conditions in past years. The results will help you decide how hot, cold, wet, or windy it might be!

Date:

Astronomy

Jun. 08, 2014 Rise Set
Actual Time 6:00 AM CDT 7:55 PM CDT
Civil Twilight 5:33 AM CDT 8:22 PM CDT
Nautical Twilight 5:01 AM CDT 8:55 PM CDT
Astronomical Twilight 4:27 AM CDT 9:29 PM CDT
Moon 3:33 PM CDT (6/8) 2:31 AM CDT (6/8)
Length of Visible Light 14h 48m
Length of Day
13h 55m
Waxing Gibbous, 77% of the Moon is Illuminated
Jun 8
Waxing Gibbous
Jun 12
Full
Jun 19
Last Quarter
Jun 27
New
Jul 5
First Quarter

Hourly Weather History & Observations

Time (CDT) Temp. Heat Index Dew Point Humidity Pressure Visibility Wind Dir Wind Speed Gust Speed Precip Events Conditions
12:15 AM 82.4 °F 89.5 °F 75.2 °F 79% 30.01 in 10.0 mi SSW 9.2 mph - N/A   Clear
12:35 AM 82.4 °F 89.5 °F 75.2 °F 79% 30.01 in 10.0 mi SSW 9.2 mph - N/A   Clear
1:15 AM 80.6 °F 86.2 °F 75.2 °F 84% 30.00 in 10.0 mi SW 9.2 mph - N/A   Clear
1:35 AM 80.6 °F 86.2 °F 75.2 °F 84% 29.99 in 10.0 mi SW 9.2 mph - N/A   Clear
1:55 AM 80.6 °F 86.2 °F 75.2 °F 84% 29.99 in 10.0 mi SSW 8.1 mph - N/A   Clear
2:15 AM 80.6 °F 86.2 °F 75.2 °F 84% 29.99 in 10.0 mi SW 9.2 mph - N/A   Clear
2:55 AM 80.6 °F 86.2 °F 75.2 °F 84% 29.99 in 10.0 mi SW 8.1 mph - N/A   Clear
3:15 AM 80.6 °F 86.2 °F 75.2 °F 84% 30.00 in 10.0 mi SW 10.4 mph - N/A   Clear
3:35 AM 80.6 °F 86.2 °F 75.2 °F 84% 30.00 in 10.0 mi SW 10.4 mph - N/A   Clear
4:15 AM 80.6 °F 86.2 °F 75.2 °F 84% 30.00 in 10.0 mi WSW 9.2 mph - N/A   Clear
4:35 AM 80.6 °F 86.2 °F 75.2 °F 84% 30.00 in 10.0 mi Variable 5.8 mph 11.5 mph N/A   Clear
4:55 AM 80.6 °F 86.2 °F 75.2 °F 84% 30.00 in 10.0 mi Variable 4.6 mph - N/A   Clear
5:15 AM 80.6 °F 86.2 °F 75.2 °F 84% 30.00 in 10.0 mi WSW 3.5 mph - N/A   Clear
5:35 AM 80.6 °F 86.2 °F 75.2 °F 84% 30.01 in 10.0 mi Variable 3.5 mph - N/A   Partly Cloudy
5:55 AM 80.6 °F 86.2 °F 75.2 °F 84% 30.02 in 10.0 mi Variable 4.6 mph - N/A   Partly Cloudy
6:15 AM 80.6 °F 86.2 °F 75.2 °F 84% 30.03 in 10.0 mi Calm Calm - N/A   Clear
6:35 AM 80.6 °F 86.2 °F 75.2 °F 84% 30.03 in 10.0 mi Calm Calm - N/A   Clear
6:55 AM 80.6 °F 86.2 °F 75.2 °F 84% 30.03 in 10.0 mi SW 4.6 mph - N/A   Clear
7:15 AM 82.4 °F 89.5 °F 75.2 °F 79% 30.03 in 10.0 mi SW 4.6 mph - N/A   Clear
7:35 AM 82.4 °F 89.5 °F 75.2 °F 79% 30.03 in 10.0 mi SW 5.8 mph - N/A   Clear
7:55 AM 82.4 °F 89.5 °F 75.2 °F 79% 30.04 in 10.0 mi SW 5.8 mph - N/A   Clear
8:15 AM 82.4 °F 89.5 °F 75.2 °F 79% 30.04 in 10.0 mi SSW 5.8 mph - N/A   Clear
8:35 AM 82.4 °F 89.5 °F 75.2 °F 79% 30.04 in 10.0 mi SSW 5.8 mph - N/A   Clear
8:55 AM 84.2 °F 92.3 °F 75.2 °F 74% 30.04 in 10.0 mi SSW 5.8 mph - N/A   Clear
9:15 AM 84.2 °F 92.3 °F 75.2 °F 74% 30.05 in 10.0 mi SSW 5.8 mph - N/A   Clear
9:35 AM 84.2 °F 92.3 °F 75.2 °F 74% 30.05 in 10.0 mi SSW 4.6 mph - N/A   Clear
9:55 AM 84.2 °F 92.3 °F 75.2 °F 74% 30.05 in 10.0 mi Calm Calm - N/A   Clear
10:15 AM 86.0 °F 95.1 °F 75.2 °F 70% 30.05 in 10.0 mi Variable 4.6 mph - N/A   Clear
10:55 AM 84.2 °F 92.3 °F 75.2 °F 74% 30.05 in 10.0 mi SW 5.8 mph - N/A   Partly Cloudy
11:15 AM 84.2 °F 92.3 °F 75.2 °F 74% 30.05 in 9.0 mi SSW 5.8 mph - N/A   Scattered Clouds
11:35 AM 84.2 °F 92.3 °F 75.2 °F 74% 30.05 in 10.0 mi SW 6.9 mph - N/A   Partly Cloudy
12:35 PM 82.4 °F 89.5 °F 75.2 °F 79% 30.03 in 10.0 mi SW 10.4 mph - N/A   Partly Cloudy
12:55 PM 82.4 °F 89.5 °F 75.2 °F 79% 30.03 in 10.0 mi SW 11.5 mph - N/A   Partly Cloudy
1:15 PM 82.4 °F 89.5 °F 75.2 °F 79% 30.03 in 10.0 mi SW 8.1 mph 13.8 mph N/A   Partly Cloudy
1:35 PM 82.4 °F 89.5 °F 75.2 °F 79% 30.02 in 10.0 mi SW 10.4 mph - N/A   Clear
1:55 PM 82.4 °F 89.5 °F 75.2 °F 79% 30.02 in 10.0 mi Variable 6.9 mph - N/A   Clear
2:15 PM 82.4 °F 89.5 °F 75.2 °F 79% 30.01 in 10.0 mi SW 6.9 mph - N/A   Partly Cloudy
2:35 PM 82.4 °F 89.5 °F 75.2 °F 79% 30.00 in 10.0 mi SW 5.8 mph - N/A   Partly Cloudy
2:55 PM 82.4 °F 89.5 °F 75.2 °F 79% 30.00 in 10.0 mi Calm Calm - N/A   Partly Cloudy
3:15 PM 82.4 °F 89.5 °F 75.2 °F 79% 29.99 in 10.0 mi Calm Calm - N/A   Mostly Cloudy
3:35 PM 82.4 °F 89.5 °F 75.2 °F 79% 29.98 in 10.0 mi Calm Calm - N/A   Scattered Clouds
3:55 PM 82.4 °F 89.5 °F 75.2 °F 79% 29.98 in 10.0 mi Calm Calm - N/A   Scattered Clouds
4:15 PM 82.4 °F 89.5 °F 75.2 °F 79% 29.98 in 10.0 mi Calm Calm - N/A   Mostly Cloudy
4:35 PM 82.4 °F 89.5 °F 75.2 °F 79% 29.97 in 10.0 mi Calm Calm - N/A   Mostly Cloudy
4:55 PM 82.4 °F 89.5 °F 75.2 °F 79% 29.97 in 10.0 mi Calm Calm - N/A   Scattered Clouds
5:15 PM 82.4 °F 89.5 °F 75.2 °F 79% 29.97 in 10.0 mi SW 3.5 mph - N/A   Mostly Cloudy
5:35 PM 82.4 °F 89.5 °F 75.2 °F 79% 29.97 in 10.0 mi Calm Calm - N/A   Mostly Cloudy
5:55 PM 82.4 °F 89.5 °F 75.2 °F 79% 29.96 in 10.0 mi SW 4.6 mph - N/A   Overcast
6:15 PM 82.4 °F 89.5 °F 75.2 °F 79% 29.96 in 10.0 mi SW 4.6 mph - N/A   Overcast
6:35 PM 82.4 °F 89.5 °F 75.2 °F 79% 29.95 in 10.0 mi SW 5.8 mph - N/A   Overcast
6:55 PM 82.4 °F 89.5 °F 75.2 °F 79% 29.96 in 10.0 mi SW 4.6 mph - N/A   Scattered Clouds
7:15 PM 82.4 °F 89.5 °F 75.2 °F 79% 29.96 in 10.0 mi SW 3.5 mph - N/A   Partly Cloudy
7:35 PM 82.4 °F 89.5 °F 75.2 °F 79% 29.95 in 10.0 mi SSW 5.8 mph - N/A   Clear
7:55 PM 82.4 °F 89.5 °F 75.2 °F 79% 29.96 in 10.0 mi SSW 4.6 mph - N/A   Clear
8:15 PM 82.4 °F 89.5 °F 75.2 °F 79% 29.96 in 10.0 mi SSW 5.8 mph - N/A   Clear
8:35 PM 82.4 °F 89.5 °F 75.2 °F 79% 29.96 in 10.0 mi SSW 6.9 mph - N/A   Partly Cloudy
8:55 PM 82.4 °F 89.5 °F 75.2 °F 79% 29.96 in 10.0 mi SSW 9.2 mph - N/A   Partly Cloudy
9:15 PM 82.4 °F 89.5 °F 75.2 °F 79% 29.96 in 10.0 mi South 8.1 mph - N/A   Clear
9:35 PM 82.4 °F 89.5 °F 75.2 °F 79% 29.97 in 10.0 mi South 10.4 mph - N/A   Scattered Clouds
9:55 PM 82.4 °F 89.5 °F 75.2 °F 79% 29.98 in 10.0 mi South 12.7 mph - N/A   Scattered Clouds
10:15 PM 82.4 °F 89.5 °F 75.2 °F 79% 29.99 in 10.0 mi South 11.5 mph - N/A   Partly Cloudy
10:35 PM 82.4 °F 89.5 °F 75.2 °F 79% 29.99 in 10.0 mi South 12.7 mph - N/A   Partly Cloudy
10:55 PM 82.4 °F 89.5 °F 75.2 °F 79% 30.00 in 10.0 mi South 12.7 mph - N/A   Partly Cloudy
11:15 PM 80.6 °F 86.2 °F 75.2 °F 84% 29.99 in 10.0 mi South 15.0 mph - N/A   Mostly Cloudy
11:35 PM 80.6 °F 86.2 °F 75.2 °F 84% 29.99 in 10.0 mi South 17.3 mph - N/A   Scattered Clouds
11:55 PM 82.4 °F 89.5 °F 75.2 °F 79% 30.00 in 10.0 mi South 17.3 mph - N/A   Scattered Clouds